Location: Zagreb
(45.8000°N, 16.0000°E)
Time: 15:18:35
(UTC+02:00)

Transit 2A Rocket - Pass Details

Date: 18 August 2022
Orbit: 593 x 907 km, 66.7° (Epoch: 25 September)

Event Time Altitude Azimuth Distance (km) Brightness Sun altitude
Rises 03:30:05 0° 317° (NW) 2,879 8.1 -22.0°
Reaches altitude 10° 03:32:32 10° 305° (NW) 1,999 7.1 -21.8°
Enters shadow 03:33:29 15° 297° (WNW) 1,701 6.7 -21.7°
Maximum altitude 03:36:19 28° 247° (WSW) 1,231 - -21.3°
Drops below altitude 10° 03:40:21 10° 189° (S) 2,117 - -20.9°
Sets 03:43:01 0° 178° (S) 3,085 - -20.6°
